Marshall, TX

5:31 AM CST on December 11, 2019 (GMT -0600)
Harrison County

Weather History for KASL - October, 2019

Change the Weather History Date:

Thursday, October 10, 2019

  Actual Average (KGGG) Record (KGGG)
Temperature  
Mean Temperature 78 °F -  
Max Temperature 90 °F 76 °F 94 °F (1937)
Min Temperature 66 °F 54 °F 32 °F (2000)
Cooling Degree Days 13    
Growing Degree Days 28 (Base 50)    
Moisture  
Dew Point 66 °F    
Average Humidity 72    
Maximum Humidity 94    
Minimum Humidity 45    
Precipitation  
Precipitation 0.00 in - - ()
Sea Level Pressure  
Sea Level Pressure 29.91 in    
Wind  
Wind Speed 6 mph (South)    
Max Wind Speed 15 mph    
Max Gust Speed 20 mph    
Visibility 9 miles    
Events      
Averages and records for this station are not official NWS values.
T = Trace of Precipitation, MM = Missing Value Source: NWS Daily Summary

Daily Weather History Graph

Daily Weather History Graph

Search for Another Location

Airport or City:

Astronomy

Oct. 10, 2019 Rise Set
Actual Time 7:17 AM CDT 6:50 PM CDT
Civil Twilight 6:52 AM CDT 7:15 PM CDT
Nautical Twilight 6:24 AM CDT 7:43 PM CDT
Astronomical Twilight 5:55 AM CDT 8:12 PM CDT
Moon 5:39 PM CDT (10/10) 4:17 AM CDT (10/10)
Length of Visible Light 12h 22m
Length of Day
11h 33m
Waxing Gibbous, 91% of the Moon is Illuminated
Oct 10
Waxing Gibbous
Oct 13
Full
Oct 21
Last Quarter
Oct 27
New
Nov 4
First Quarter

Hourly Weather History & Observations

Time (CDT) Temp. Heat Index Dew Point Humidity Pressure Visibility Wind Dir Wind Speed Gust Speed Precip Events Conditions
12:15 AM 67.5 °F - 63.7 °F 88% 29.94 in 10.0 mi South 3.5 mph - N/A   Clear
12:35 AM 67.6 °F - 63.7 °F 87% 29.94 in 10.0 mi SSE 3.5 mph - N/A   Clear
12:55 AM 70.0 °F - 66.2 °F 88% 29.94 in 10.0 mi SSE 3.5 mph - N/A   Clear
1:15 AM 70.0 °F - 66.0 °F 87% 29.94 in 10.0 mi SSE 3.5 mph - N/A   Clear
1:55 AM 70.0 °F - 66.4 °F 88% 29.94 in 10.0 mi South 3.5 mph - N/A   Clear
2:15 AM 70.0 °F - 66.7 °F 89% 29.94 in 10.0 mi South 3.5 mph - N/A   Clear
2:35 AM 70.0 °F - 67.1 °F 91% 29.94 in 10.0 mi South 4.6 mph - N/A   Clear
2:55 AM 70.0 °F - 67.1 °F 91% 29.94 in 10.0 mi South 4.6 mph - N/A   Clear
3:15 AM 70.0 °F - 67.1 °F 91% 29.93 in 10.0 mi South 4.6 mph - N/A   Clear
3:35 AM 70.0 °F - 67.1 °F 91% 29.93 in 10.0 mi South 3.5 mph - N/A   Clear
3:55 AM 68.7 °F - 66.2 °F 92% 29.93 in 10.0 mi South 4.6 mph - N/A   Clear
4:15 AM 67.5 °F - 64.9 °F 92% 29.94 in 10.0 mi South 4.6 mph - N/A   Clear
4:35 AM 67.5 °F - 65.3 °F 93% 29.94 in 7.0 mi SSE 4.6 mph - N/A   Clear
4:55 AM 67.5 °F - 65.3 °F 93% 29.94 in 7.0 mi South 3.5 mph - N/A   Clear
5:15 AM 67.5 °F - 65.3 °F 93% 29.94 in 7.0 mi Calm Calm - N/A   Clear
5:35 AM 67.5 °F - 65.3 °F 93% 29.95 in 7.0 mi Calm Calm - N/A   Clear
6:15 AM 67.5 °F - 65.3 °F 93% 29.95 in 5.0 mi Calm Calm - N/A   Clear
6:35 AM 67.5 °F - 65.5 °F 93% 29.95 in 5.0 mi SSE 3.5 mph - N/A   Clear
6:55 AM 66.2 °F - 64.4 °F 94% 29.95 in 4.0 mi South 3.5 mph - N/A   Clear
7:15 AM 67.5 °F - 65.5 °F 93% 29.95 in 5.0 mi South 3.5 mph - N/A   Clear
7:35 AM 67.5 °F - 65.5 °F 93% 29.96 in 5.0 mi South 3.5 mph - N/A   Clear
7:55 AM 70.0 °F - 68.0 °F 93% 29.96 in 5.0 mi South 3.5 mph - N/A   Clear
8:15 AM 70.0 °F - 68.0 °F 93% 29.96 in 7.0 mi South 4.6 mph - N/A   Scattered Clouds
8:35 AM 70.0 °F - 67.6 °F 92% 29.97 in 10.0 mi South 5.8 mph - N/A   Scattered Clouds
8:55 AM 72.5 °F - 69.6 °F 91% 29.97 in 10.0 mi South 6.9 mph - N/A   Clear
9:15 AM 73.2 °F - 69.3 °F 87% 29.98 in 10.0 mi South 9.2 mph - N/A   Scattered Clouds
9:35 AM 75.2 °F - 70.0 °F 84% 29.98 in 10.0 mi South 10.4 mph - N/A   Clear
9:55 AM 76.3 °F - 70.0 °F 81% 29.98 in 10.0 mi South 9.2 mph - N/A   Clear
10:15 AM 77.4 °F - 69.6 °F 77% 29.98 in 10.0 mi South 9.2 mph 17.3 mph N/A   Scattered Clouds
10:35 AM 77.9 °F - 69.6 °F 76% 29.98 in 10.0 mi SSW 5.8 mph - N/A   Scattered Clouds
10:55 AM 78.8 °F - 69.3 °F 72% 29.97 in 10.0 mi SSW 10.4 mph - N/A   Scattered Clouds
11:15 AM 79.7 °F - 68.9 °F 69% 29.97 in 10.0 mi South 8.1 mph - N/A   Scattered Clouds
11:35 AM 82.4 °F 86.3 °F 70.0 °F 66% 29.97 in 10.0 mi SSW 6.9 mph - N/A   Scattered Clouds
11:55 AM 85.1 °F 90.1 °F 70.9 °F 62% 29.96 in 10.0 mi South 13.8 mph 18.4 mph N/A   Scattered Clouds
12:15 PM 85.1 °F 89.1 °F 69.1 °F 59% 29.95 in 10.0 mi South 15.0 mph 18.4 mph N/A   Scattered Clouds
12:35 PM 85.1 °F 87.1 °F 65.7 °F 52% 29.94 in 10.0 mi SSW 11.5 mph - N/A   Scattered Clouds
12:55 PM 85.1 °F 86.9 °F 64.9 °F 51% 29.93 in 10.0 mi South 10.4 mph 17.3 mph N/A   Clear
1:15 PM 85.3 °F 87.1 °F 65.3 °F 51% 29.92 in 10.0 mi South 11.5 mph 16.1 mph N/A   Scattered Clouds
1:35 PM 85.5 °F 86.8 °F 64.2 °F 49% 29.91 in 10.0 mi South 8.1 mph 17.3 mph N/A   Scattered Clouds
1:55 PM 87.4 °F 89.1 °F 64.9 °F 47% 29.90 in 10.0 mi South 12.7 mph 18.4 mph N/A   Scattered Clouds
2:15 PM 87.4 °F 89.1 °F 64.8 °F 47% 29.89 in 10.0 mi South 11.5 mph - N/A   Scattered Clouds
2:35 PM 87.4 °F 89.1 °F 64.9 °F 47% 29.88 in 10.0 mi South 12.7 mph 18.4 mph N/A   Scattered Clouds
2:55 PM 90.0 °F 92.8 °F 66.7 °F 46% 29.87 in 10.0 mi South 9.2 mph 17.3 mph N/A   Scattered Clouds
3:15 PM 90.0 °F 92.4 °F 66.2 °F 45% 29.86 in 10.0 mi South 9.2 mph 17.3 mph N/A   Scattered Clouds
3:35 PM 90.0 °F 92.4 °F 66.0 °F 45% 29.86 in 10.0 mi South 12.7 mph 19.6 mph N/A   Scattered Clouds
3:55 PM 86.9 °F 88.3 °F 64.6 °F 47% 29.85 in 10.0 mi SSE 8.1 mph 11.5 mph N/A   Scattered Clouds
4:15 PM 89.1 °F 91.7 °F 66.4 °F 47% 29.85 in 10.0 mi South 12.7 mph 18.4 mph N/A   Scattered Clouds
4:35 PM 87.4 °F 89.1 °F 64.8 °F 47% 29.85 in 10.0 mi South 13.8 mph 17.3 mph N/A   Scattered Clouds
5:15 PM 87.4 °F 89.1 °F 64.8 °F 47% 29.84 in 10.0 mi South 15.0 mph 18.4 mph N/A   Clear
5:35 PM 85.1 °F 86.4 °F 63.9 °F 49% 29.84 in 10.0 mi South 11.5 mph 16.1 mph N/A   Clear
5:55 PM 85.1 °F 86.6 °F 64.4 °F 50% 29.84 in 10.0 mi South 12.7 mph 17.3 mph N/A   Clear
6:15 PM 85.1 °F 87.4 °F 66.0 °F 53% 29.84 in 10.0 mi South 9.2 mph - N/A   Clear
6:35 PM 84.0 °F 86.5 °F 66.7 °F 56% 29.85 in 10.0 mi SSE 3.5 mph - N/A   Clear
6:55 PM 82.4 °F 84.8 °F 66.6 °F 59% 29.85 in 10.0 mi SSE 4.6 mph - N/A   Clear
7:15 PM 78.8 °F - 64.4 °F 61% 29.84 in 10.0 mi SSE 4.6 mph - N/A   Clear
7:35 PM 78.1 °F - 64.6 °F 63% 29.85 in 10.0 mi SSE 4.6 mph - N/A   Clear
7:55 PM 77.9 °F - 64.4 °F 63% 29.85 in 10.0 mi SSE 6.9 mph - N/A   Clear
8:15 PM 77.4 °F - 64.4 °F 64% 29.86 in 10.0 mi SSE 4.6 mph - N/A   Clear
8:35 PM 76.3 °F - 64.4 °F 67% 29.86 in 10.0 mi SSE 3.5 mph - N/A   Clear
8:55 PM 75.2 °F - 64.0 °F 68% 29.87 in 10.0 mi SSE 3.5 mph - N/A   Clear
9:15 PM 75.2 °F - 64.8 °F 70% 29.87 in 10.0 mi SSE 4.6 mph - N/A   Clear
9:35 PM 75.2 °F - 64.9 °F 70% 29.87 in 10.0 mi SSE 3.5 mph - N/A   Clear
9:55 PM 75.0 °F - 65.7 °F 73% 29.87 in 10.0 mi South 3.5 mph - N/A   Clear
10:15 PM 72.5 °F - 64.4 °F 76% 29.89 in 10.0 mi SSE 3.5 mph - N/A   Clear
10:35 PM 72.5 °F - 64.2 °F 75% 29.89 in 10.0 mi SSE 4.6 mph - N/A   Clear
10:55 PM 72.5 °F - 64.4 °F 76% 29.89 in 10.0 mi South 3.5 mph - N/A   Clear
11:15 PM 72.5 °F - 63.9 °F 74% 29.89 in 10.0 mi SSE 3.5 mph - N/A   Clear
11:55 PM 72.5 °F - 64.8 °F 77% 29.91 in 10.0 mi Calm Calm - N/A   Clear